Date String (YYYY-MM-DD hh:mm:ss) UTC,Instrument flags,absolute air pressure of the measurement (hPa),sample flow rate (lpm),inlet stack bypass flow (lpm),air temperature of the measurement (°C),ambient temperature measured by the external sensor (°C),aerosol sample conditioner tube jacket temperature (°C),OPC LED temperature (°C),internal box temperature (°C),relative humidity of the measurement (%),span deviation,mass concentration of particles derived from Lorenz-Mie calculation of OPC scattering (μg/m³),mass concentration of particles derived from Lorenz-Mie calculation of OPC scattering (μg/m³),mass concentration of particles derived from Lorenz-Mie calculation of OPC scattering (μg/m³)
DateTimeUTC,F1_M11,P_M11,Q1_M11,Q2_M11,T1_M11,T2_M11,T3_M11,T4_M11,T5_M11,U1_M11,ZSPAN_M11,X0_M11,X2_M11,X1_M11
2023-10-06 15:00:00,SystemResetWarning,0842.6,5.00,000.00,028.2,026.7,000.0,036.6,029.8,17.4,0000.0,0006.12,0002.39,0001.99
2023-10-06 15:01:00,SystemResetWarning,0842.6,5.00,000.00,028.2,026.7,000.0,036.6,029.8,17.7,0000.0,0006.46,0002.44,0002.00
2023-10-06 15:02:00,SystemResetWarning,0842.6,5.00,000.00,028.2,026.7,000.0,036.6,029.8,17.7,0000.0,0006.46,0002.41,0002.00
2023-10-06 15:03:00,SystemResetWarning,0842.7,5.00,000.00,028.2,026.7,000.0,036.6,029.8,17.7,0000.0,0006.80,0002.39,0002.01
2023-10-06 15:04:00,SystemResetWarning,0842.8,5.00,000.00,028.2,026.7,000.0,036.6,029.8,18.0,0000.0,0007.54,0002.42,0002.02
2023-10-06 15:05:00,SystemResetWarning,0842.8,5.01,000.00,028.2,026.7,000.0,036.6,029.8,18.0,0000.0,0007.39,0002.43,0002.03
2023-10-06 15:06:00,SystemResetWarning,0842.8,5.00,000.00,028.2,026.7,000.0,036.6,029.9,17.9,0000.0,0007.55,0002.49,0002.06
2023-10-06 15:07:00,SystemResetWarning,0842.8,5.00,000.00,028.2,026.7,000.0,036.6,029.9,18.0,0000.0,0008.36,0002.53,0002.08
2023-10-06 15:08:00,SystemResetWarning,0842.8,5.00,000.00,028.2,026.7,000.0,036.6,029.9,18.1,0000.0,0008.49,0002.60,0002.11
2023-10-06 15:09:00,SystemResetWarning,0842.8,5.00,000.00,028.2,026.7,000.0,036.6,029.9,18.0,0000.0,0008.53,0002.66,0002.14
2023-10-06 15:10:00,SystemResetWarning,0842.8,5.00,000.00,028.2,026.7,000.0,036.6,029.9,18.0,0000.0,0008.47,0002.68,0002.14
2023-10-06 15:11:00,SystemResetWarning,0842.8,5.00,000.00,028.2,026.7,000.0,036.6,029.9,18.0,0000.0,0008.21,0002.69,0002.15
2023-10-06 15:12:00,SystemResetWarning,0842.8,5.01,000.00,028.2,026.7,000.0,036.6,029.9,18.1,0000.0,0008.11,0002.69,0002.15
2023-10-06 15:13:00,SystemResetWarning,0842.8,5.01,000.00,028.2,026.7,000.0,036.6,029.9,18.0,0000.0,0008.84,0002.82,0002.16
2023-10-06 15:14:00,SystemResetWarning,0842.8,5.00,000.00,028.2,026.7,000.0,036.6,029.9,17.8,0000.0,0008.99,0002.88,0002.17
2023-10-06 15:15:00,SystemResetWarning,0842.8,5.00,000.00,028.2,026.7,000.0,036.6,029.9,17.7,0000.0,0008.39,0002.90,0002.19
2023-10-06 15:16:00,SystemResetWarning,0842.9,5.00,000.00,028.2,026.7,000.0,036.6,029.8,17.7,0000.0,0008.34,0002.89,0002.21
2023-10-06 15:17:00,SystemResetWarning,0842.8,5.00,000.00,028.2,026.7,000.0,036.6,029.8,17.7,0000.0,0007.66,0002.86,0002.21
2023-10-06 15:18:00,SystemResetWarning,0842.9,5.00,000.00,028.2,026.6,000.0,036.6,029.8,17.8,0000.0,0007.27,0002.88,0002.19
2023-10-06 15:19:00,SystemResetWarning,0843.0,5.00,000.00,028.2,026.6,000.0,036.6,029.8,17.8,0000.0,0007.17,0002.90,0002.19
2023-10-06 15:20:00,SystemResetWarning,0843.0,5.00,000.00,028.2,026.6,000.0,036.6,029.8,17.9,0000.0,0007.14,0002.90,0002.20
2023-10-06 15:21:00,SystemResetWarning,0842.9,5.00,000.00,028.2,026.6,000.0,036.6,029.8,17.7,0000.0,0007.12,0002.89,0002.20
2023-10-06 15:22:00,SystemResetWarning,0842.9,5.00,000.00,028.2,026.6,000.0,036.6,029.8,17.7,0000.0,0007.07,0002.87,0002.19
2023-10-06 15:23:00,SystemResetWarning,0842.9,5.00,000.00,028.2,026.6,000.0,036.6,029.8,17.8,0000.0,0007.10,0002.86,0002.19
2023-10-06 15:24:00,SystemResetWarning,0842.9,5.00,000.00,028.1,026.6,000.0,036.6,029.8,17.7,0000.0,0006.53,0002.80,0002.17
2023-10-06 15:25:00,SystemResetWarning,0842.9,5.00,000.00,028.2,026.6,000.0,036.6,029.8,17.7,0000.0,0005.16,0002.73,0002.16
2023-10-06 15:26:00,SystemResetWarning,0842.9,5.00,000.00,028.1,026.6,000.0,036.6,029.8,17.8,0000.0,0006.06,0002.77,0002.16
2023-10-06 15:27:00,SystemResetWarning,0842.9,5.00,000.00,028.1,026.6,000.0,036.6,029.8,17.8,0000.0,0007.41,0002.80,0002.16
2023-10-06 15:28:00,SystemResetWarning,0842.9,4.99,000.00,028.1,026.6,000.0,036.6,029.8,17.8,0000.0,0007.99,0002.87,0002.15
2023-10-06 15:29:00,SystemResetWarning,0843.0,5.00,000.00,028.1,026.6,000.0,036.6,029.8,17.7,0000.0,0008.21,0002.90,0002.16
2023-10-06 15:30:00,SystemResetWarning,0842.9,5.00,000.00,028.1,026.6,000.0,036.6,029.8,17.7,0000.0,0008.17,0002.95,0002.18
2023-10-06 15:31:00,SystemResetWarning,0843.0,5.00,000.00,028.1,026.6,000.0,036.5,029.7,17.7,0000.0,0008.09,0002.89,0002.17
2023-10-06 15:32:00,SystemResetWarning,0843.0,5.00,000.00,028.1,026.6,000.0,036.6,029.8,17.7,0000.0,0008.20,0002.88,0002.17
2023-10-06 15:33:00,SystemResetWarning,0843.0,5.01,000.00,028.1,026.6,000.0,036.5,029.7,17.5,0000.0,0008.35,0002.93,0002.17
2023-10-06 15:34:00,SystemResetWarning,0843.0,5.00,000.00,028.1,026.6,000.0,036.6,029.8,17.4,0000.0,0008.34,0002.95,0002.18
2023-10-06 15:35:00,SystemResetWarning,0843.1,5.00,000.00,028.1,026.6,000.0,036.5,029.8,17.5,0000.0,0008.28,0002.99,0002.19
2023-10-06 15:36:00,SystemResetWarning,0843.1,5.00,000.00,028.1,026.6,000.0,036.5,029.8,17.5,0000.0,0008.28,0002.97,0002.20
2023-10-06 15:37:00,SystemResetWarning,0843.1,5.00,000.00,028.1,026.6,000.0,036.5,029.7,17.5,0000.0,0007.93,0002.93,0002.21
2023-10-06 15:38:00,SystemResetWarning,0843.1,5.00,000.00,028.1,026.6,000.0,036.5,029.8,17.5,0000.0,0007.38,0002.92,0002.20
2023-10-06 15:39:00,SystemResetWarning,0843.1,5.00,000.00,028.1,026.6,000.0,036.5,029.8,17.5,0000.0,0006.87,0002.85,0002.21
2023-10-06 15:40:00,SystemResetWarning,0843.1,5.00,000.00,028.1,026.6,000.0,036.5,029.8,17.5,0000.0,0005.94,0002.82,0002.21
2023-10-06 15:41:00,SystemResetWarning,0843.0,5.00,000.00,028.1,026.6,000.0,036.5,029.8,17.5,0000.0,0005.72,0002.76,0002.20
2023-10-06 15:42:00,SystemResetWarning,0843.0,5.00,000.00,028.1,026.6,000.0,036.5,029.8,17.5,0000.0,0006.67,0002.73,0002.20
2023-10-06 15:43:00,SystemResetWarning,0842.9,5.00,000.00,028.1,026.6,000.0,036.5,029.8,17.6,0000.0,0007.37,0002.79,0002.19
2023-10-06 15:44:00,SystemResetWarning,0842.9,4.99,000.00,028.1,026.6,000.0,036.5,029.8,17.6,0000.0,0007.32,0002.77,0002.20
2023-10-06 15:45:00,SystemResetWarning,0842.9,5.00,000.00,028.1,026.5,000.0,036.5,029.8,17.6,0000.0,0007.63,0002.82,0002.22
2023-10-06 15:46:00,SystemResetWarning,0843.0,5.00,000.00,028.1,026.5,000.0,036.5,029.8,17.6,0000.0,0007.56,0002.78,0002.22
2023-10-06 15:47:00,SystemResetWarning,0842.9,4.99,000.00,028.1,026.5,000.0,036.5,029.7,17.6,0000.0,0007.65,0002.85,0002.23
2023-10-06 15:48:00,SystemResetWarning,0842.9,5.00,000.00,028.1,026.6,000.0,036.5,029.7,17.5,0000.0,0007.88,0002.88,0002.24
2023-10-06 15:49:00,SystemResetWarning,0842.9,5.00,000.00,028.1,026.5,000.0,036.5,029.7,17.5,0000.0,0007.92,0002.86,0002.25
2023-10-06 15:50:00,SystemResetWarning,0842.9,5.00,000.00,028.1,026.5,000.0,036.5,029.7,17.5,0000.0,0007.73,0002.90,0002.25
2023-10-06 15:51:00,SystemResetWarning,0842.9,5.01,000.00,028.1,026.5,000.0,036.5,029.7,17.6,0000.0,0007.78,0002.96,0002.26
2023-10-06 15:52:00,SystemResetWarning,0842.9,5.00,000.00,028.1,026.5,000.0,036.5,029.7,17.5,0000.0,0007.81,0002.99,0002.26
2023-10-06 15:53:00,SystemResetWarning,0842.9,4.99,000.00,028.1,026.6,000.0,036.5,029.8,17.5,0000.0,0008.12,0003.05,0002.26
2023-10-06 15:54:00,SystemResetWarning,0842.9,5.00,000.00,028.1,026.6,000.0,036.5,029.8,17.5,0000.0,0007.85,0003.08,0002.27
2023-10-06 15:55:00,SystemResetWarning,0842.9,5.00,000.00,028.1,026.6,000.0,036.5,029.8,17.6,0000.0,0008.23,0003.09,0002.29
2023-10-06 15:56:00,SystemResetWarning,0843.0,5.00,000.00,028.1,026.6,000.0,036.5,029.8,17.6,0000.0,0008.11,0003.08,0002.29
2023-10-06 15:57:00,SystemResetWarning,0842.9,5.00,000.00,028.1,026.6,000.0,036.5,029.7,17.5,0000.0,0008.31,0003.08,0002.30
2023-10-06 15:58:00,SystemResetWarning,0843.0,5.00,000.00,028.1,026.6,000.0,036.5,029.7,17.6,0000.0,0009.02,0003.08,0002.31
2023-10-06 15:59:00,SystemResetWarning,0843.0,5.00,000.00,028.1,026.6,000.0,036.5,029.7,17.5,0000.0,0010.50,0003.10,0002.32
